| time (UTC) | temp C | wind direction | speed KPH | gust KPH | rain 1hr cm | rain 24hr cm | rain mn cm | humidity % | barometer mb |
| 20260510164501 | 20 | 64 | 0.0 | 1.6 | 0.00 | 0.00 | 0.00 | 48 | 1013.6 |
| 20260510163157 | 21 | 66 | 0.0 | 1.6 | 0.00 | 0.00 | 0.00 | 45 | 1013.5 |
| 20260510161600 | 21 | 38 | 0.0 | 1.6 | 0.00 | 0.00 | 0.00 | 46 | 1013.5 |
| 20260510154559 | 22 | 50 | 0.0 | 4.8 | 0.00 | 0.00 | 0.00 | 48 | 1013.5 |
| 20260510153104 | 22 | 315 | 1.6 | 8.0 | 0.00 | 0.00 | 0.00 | 48 | 1013.4 |
| 20260510151629 | 22 | 328 | 1.6 | 11.3 | 0.00 | 0.00 | 0.00 | 46 | 1013.4 |
| 20260510144612 | 22 | 261 | 1.6 | 14.5 | 0.00 | 0.00 | 0.00 | 43 | 1013.3 |
| 20260510143106 | 23 | 297 | 4.8 | 14.5 | 0.00 | 0.00 | 0.00 | 38 | 1013.3 |
| 20260510141559 | 23 | 289 | 1.6 | 8.0 | 0.00 | 0.00 | 0.00 | 39 | 1013.5 |
| 20260510140054 | 23 | 297 | 3.2 | 16.1 | 0.00 | 0.00 | 0.00 | 42 | 1013.4 |
| 20260510134556 | 23 | 305 | 4.8 | 14.5 | 0.00 | 0.00 | 0.00 | 43 | 1013.5 |
| 20260510133052 | 23 | 222 | 1.6 | 17.7 | 0.00 | 0.00 | 0.00 | 49 | 1013.4 |
| 20260510131555 | 24 | 309 | 3.2 | 9.7 | 0.00 | 0.00 | 0.00 | 47 | 1013.5 |
| 20260510130050 | 24 | 11 | 4.8 | 9.7 | 0.00 | 0.00 | 0.00 | 47 | 1013.7 |
| 20260510124558 | 23 | 338 | 4.8 | 14.5 | 0.00 | 0.00 | 0.00 | 43 | 1013.6 |
| 20260510123049 | 24 | 261 | 4.8 | 12.9 | 0.00 | 0.00 | 0.00 | 43 | 1013.8 |
| 20260510121545 | 24 | 292 | 3.2 | 14.5 | 0.00 | 0.00 | 0.00 | 48 | 1014.0 |
| 20260510120044 | 24 | 296 | 3.2 | 12.9 | 0.00 | 0.00 | 0.00 | 49 | 1014.1 |
| 20260510114546 | 24 | 298 | 1.6 | 12.9 | 0.00 | 0.00 | 0.00 | 47 | 1014.1 |
| 20260510113043 | 25 | 296 | 4.8 | 12.9 | 0.00 | 0.00 | 0.00 | 41 | 1014.2 |
| 20260510111539 | 24 | 334 | 1.6 | 14.5 | 0.00 | 0.00 | 0.00 | 42 | 1014.2 |
| 20260510110043 | 23 | 284 | 4.8 | 16.1 | 0.00 | 0.00 | 0.00 | 41 | 1014.2 |
| 20260510104537 | 24 | 327 | 1.6 | 14.5 | 0.00 | 0.00 | 0.00 | 52 | 1014.3 |
| 20260510103036 | 24 | 279 | 3.2 | 17.7 | 0.00 | 0.00 | 0.00 | 39 | 1014.2 |
| 20260510101535 | 23 | 351 | 3.2 | 14.5 | 0.00 | 0.00 | 0.00 | 45 | 1014.3 |
| 20260510100054 | 23 | 271 | 1.6 | 9.7 | 0.00 | 0.00 | 0.00 | 47 | 1014.5 |
| 20260510094549 | 23 | 313 | 4.8 | 16.1 | 0.00 | 0.00 | 0.00 | 46 | 1014.5 |
| 20260510093034 | 23 | 269 | 1.6 | 8.0 | 0.00 | 0.00 | 0.00 | 50 | 1014.7 |
| 20260510091531 | 24 | 311 | 1.6 | 11.3 | 0.00 | 0.00 | 0.00 | 45 | 1014.7 |
| 20260510090041 | 23 | 216 | 0.0 | 9.7 | 0.00 | 0.00 | 0.00 | 36 | 1014.6 |
| 20260510084529 | 23 | 281 | 1.6 | 14.5 | 0.00 | 0.00 | 0.00 | 42 | 1014.6 |
| 20260510083030 | 22 | 245 | 1.6 | 9.7 | 0.00 | 0.00 | 0.00 | 46 | 1014.6 |
| 20260510081533 | 22 | 255 | 1.6 | 12.9 | 0.00 | 0.00 | 0.00 | 44 | 1014.7 |
| 20260510080030 | 22 | 314 | 4.8 | 12.9 | 0.00 | 0.00 | 0.00 | 40 | 1014.8 |
| 20260510074526 | 23 | 261 | 0.0 | 6.4 | 0.00 | 0.00 | 0.00 | 47 | 1014.7 |
| 20260510073025 | 22 | 306 | 0.0 | 8.0 | 0.00 | 0.00 | 0.00 | 44 | 1014.7 |
| 20260510071524 | 23 | 316 | 3.2 | 8.0 | 0.00 | 0.00 | 0.00 | 35 | 1014.5 |
| 20260510070030 | 23 | 284 | 1.6 | 14.5 | 0.00 | 0.00 | 0.00 | 29 | 1014.5 |
| 20260510064523 | 23 | 303 | 0.0 | 4.8 | 0.00 | 0.00 | 0.00 | 27 | 1014.5 |
| 20260510063019 | 22 | 13 | 0.0 | 16.1 | 0.00 | 0.00 | 0.00 | 30 | 1014.6 |
| 20260510061515 | 22 | 346 | 1.6 | 4.8 | 0.00 | 0.00 | 0.00 | 36 | 1014.7 |
| 20260510060012 | 22 | 320 | 0.0 | 3.2 | 0.00 | 0.00 | 0.00 | 42 | 1014.7 |
| 20260510054511 | 22 | 295 | 0.0 | 4.8 | 0.00 | 0.00 | 0.00 | 41 | 1014.6 |
| 20260510053009 | 21 | 348 | 0.0 | 3.2 | 0.00 | 0.00 | 0.00 | 39 | 1014.5 |
| 20260510051509 | 21 | 43 | 0.0 | 0.0 | 0.00 | 0.00 | 0.00 | 39 | 1014.6 |
| 20260510050008 | 21 | 55 | 0.0 | 1.6 | 0.00 | 0.00 | 0.00 | 37 | 1014.5 |
| 20260510044504 | 21 | 55 | 0.0 | 0.0 | 0.00 | 0.00 | 0.00 | 38 | 1014.5 |
| 20260510043111 | 20 | 55 | 0.0 | 0.0 | 0.00 | 0.00 | 0.00 | 40 | 1014.4 |
| 20260510041556 | 18 | 55 | 0.0 | 0.0 | 0.00 | 0.00 | 0.00 | 40 | 1014.3 |
| 20260510040059 | 17 | 54 | 0.0 | 0.0 | 0.00 | 0.00 | 0.00 | 47 | 1014.3 |
| 20260510034558 | 17 | 54 | 0.0 | 0.0 | 0.00 | 0.00 | 0.00 | 48 | 1014.2 |
| 20260510033117 | 17 | 52 | 0.0 | 1.6 | 0.00 | 0.00 | 0.00 | 54 | 1014.1 |
| 20260510031601 | 17 | 57 | 0.0 | 3.2 | 0.00 | 0.00 | 0.00 | 54 | 1014.1 |
| 20260510030056 | 17 | 38 | 0.0 | 1.6 | 0.00 | 0.00 | 0.00 | 52 | 1014.0 |
| 20260510024548 | 17 | 5 | 0.0 | 1.6 | 0.00 | 0.00 | 0.00 | 49 | 1013.9 |
| 20260510023047 | 17 | 351 | 0.0 | 3.2 | 0.00 | 0.00 | 0.00 | 47 | 1013.9 |
| 20260510021547 | 16 | 74 | 0.0 | 4.8 | 0.00 | 0.00 | 0.00 | 46 | 1013.9 |
| 20260510020049 | 16 | 65 | 0.0 | 3.2 | 0.00 | 0.00 | 0.00 | 45 | 1014.0 |
| 20260510014548 | 16 | 73 | 0.0 | 3.2 | 0.00 | 0.00 | 0.00 | 47 | 1014.1 |
| 20260510013043 | 16 | 65 | 0.0 | 1.6 | 0.00 | 0.00 | 0.00 | 47 | 1014.1 |
| 20260510011545 | 16 | 64 | 0.0 | 1.6 | 0.00 | 0.00 | 0.00 | 47 | 1014.2 |
| 20260510010041 | 16 | 337 | 0.0 | 6.4 | 0.00 | 0.00 | 0.00 | 48 | 1014.2 |
| 20260510004540 | 16 | 109 | 0.0 | 1.6 | 0.00 | 0.00 | 0.00 | 52 | 1014.2 |
| 20260510003039 | 16 | 57 | 0.0 | 3.2 | 0.00 | 0.00 | 0.00 | 54 | 1014.3 |
| 20260510001539 | 16 | 34 | 0.0 | 1.6 | 0.00 | 0.00 | 0.00 | 58 | 1014.4 |
| 20260510000056 | 16 | 43 | 0.0 | 3.2 | 0.00 | 0.00 | 0.00 | 58 | 1014.3 |
| 20260509234546 | 16 | 24 | 0.0 | 1.6 | 0.00 | 0.00 | 0.00 | 53 | 1014.5 |
| 20260509233033 | 16 | 23 | 0.0 | 1.6 | 0.00 | 0.00 | 0.00 | 50 | 1014.4 |
| 20260509231530 | 17 | 23 | 0.0 | 0.0 | 0.00 | 0.00 | 0.00 | 50 | 1014.4 |
| 20260509230033 | 17 | 23 | 0.0 | 3.2 | 0.00 | 0.00 | 0.00 | 50 | 1014.4 |
| 20260509224529 | 17 | 349 | 0.0 | 3.2 | 0.00 | 0.00 | 0.00 | 51 | 1014.3 |
| 20260509223028 | 17 | 357 | 0.0 | 3.2 | 0.00 | 0.00 | 0.00 | 52 | 1014.4 |
| 20260509221527 | 17 | 268 | 0.0 | 6.4 | 0.00 | 0.00 | 0.00 | 52 | 1014.5 |
| 20260509220025 | 17 | 322 | 0.0 | 11.3 | 0.00 | 0.00 | 0.00 | 52 | 1014.5 |
| 20260509214529 | 17 | 331 | 0.0 | 4.8 | 0.00 | 0.00 | 0.00 | 55 | 1014.6 |
| 20260509213021 | 16 | 20 | 0.0 | 1.6 | 0.00 | 0.00 | 0.00 | 56 | 1014.6 |
| 20260509211519 | 17 | 18 | 0.0 | 0.0 | 0.00 | 0.00 | 0.00 | 57 | 1014.5 |
| 20260509210016 | 16 | 18 | 0.0 | 0.0 | 0.00 | 0.00 | 0.00 | 57 | 1014.5 |
| 20260509204523 | 17 | 18 | 0.0 | 1.6 | 0.00 | 0.00 | 0.00 | 58 | 1014.5 |
| 20260509203016 | 17 | 338 | 0.0 | 1.6 | 0.00 | 0.00 | 0.00 | 57 | 1014.5 |
| 20260509201516 | 17 | 338 | 0.0 | 3.2 | 0.00 | 0.00 | 0.00 | 55 | 1014.6 |
| 20260509200015 | 17 | 354 | 0.0 | 1.6 | 0.00 | 0.00 | 0.00 | 54 | 1014.6 |
| 20260509194518 | 18 | 359 | 0.0 | 1.6 | 0.00 | 0.00 | 0.00 | 49 | 1014.6 |
| 20260509193014 | 18 | 359 | 0.0 | 0.0 | 0.00 | 0.00 | 0.00 | 47 | 1014.6 |
| 20260509191518 | 18 | 359 | 0.0 | 3.2 | 0.00 | 0.00 | 0.00 | 51 | 1014.8 |
| 20260509190013 | 18 | 44 | 0.0 | 4.8 | 0.00 | 0.00 | 0.00 | 50 | 1014.7 |
| 20260509184515 | 18 | 324 | 0.0 | 0.0 | 0.00 | 0.00 | 0.00 | 45 | 1014.6 |
| 20260509183013 | 19 | 324 | 0.0 | 0.0 | 0.00 | 0.00 | 0.00 | 44 | 1014.6 |
| 20260509181511 | 20 | 323 | 0.0 | 3.2 | 0.00 | 0.00 | 0.00 | 39 | 1014.4 |
| 20260509180014 | 19 | 320 | 0.0 | 3.2 | 0.00 | 0.00 | 0.00 | 39 | 1014.4 |
| 20260509174510 | 19 | 332 | 0.0 | 3.2 | 0.00 | 0.00 | 0.00 | 42 | 1014.3 |
| 20260509173009 | 19 | 341 | 0.0 | 1.6 | 0.00 | 0.00 | 0.00 | 44 | 1014.4 |
| 20260509171509 | 20 | 341 | 0.0 | 3.2 | 0.00 | 0.00 | 0.00 | 46 | 1014.3 |
| 20260509170009 | 20 | 353 | 0.0 | 3.2 | 0.00 | 0.00 | 0.00 | 46 | 1014.2 |